Location: Ispringen
(48.9149°N, 8.6722°E)
Time: 01:21:36
(UTC+00:00)

Daily predictions for brighter satellites

Satellite Brightness Start Highest point End
(mag) Time Altitude Azimuth Time Altitude Azimuth Time Altitude Azimuth
CENTAUR R/B 4.4 02:05:13 26° N 02:05:13 26° N 02:10:38 10° NE
ACS3 Solar Sail 3.6 02:00:29 10° NNE 02:03:45 26° ENE 02:03:45 26° ENE
Cosmos 2360 Rocket 4.2 02:17:23 23° NE 02:17:23 23° NE 02:19:34 10° NE
Cosmos 2322 Rocket 4.3 02:17:42 22° NE 02:17:42 22° NE 02:19:47 10° NE
USA 234 4.5 02:07:51 10° ESE 02:11:31 36° E 02:11:31 36° E
SL-16 R/B 4.3 02:24:11 20° NNE 02:24:11 20° NNE 02:25:49 10° NNE
Cosmos 1943 Rocket 4.4 02:24:45 17° NNE 02:25:38 18° NE 02:29:21 10° E
ADEOS Rocket 3.7 02:33:17 10° NNE 02:38:45 57° ENE 02:38:45 57° ENE
CZ-2C R/B 4.4 02:37:47 10° NE 02:41:55 25° E 02:42:20 25° ESE
Cosmos 2219 Rocket 3.1 02:55:06 45° ENE 02:55:06 45° ENE 02:59:21 10° NE
BREEZE-M DEB (TANK) 4.4 02:53:28 77° WSW 02:53:55 79° SSW 03:17:41 10° ESE
CZ-2D R/B 4.5 03:14:04 10° N 03:14:23 12° N 03:14:23 12° N
USA 267 3.1 03:13:16 10° NE 03:19:51 85° SE 03:20:18 78° SSW
Cosmos 2228 Rocket 4.2 03:26:01 41° ENE 03:26:01 41° ENE 03:29:26 10° NNE
Cosmos 1980 Rocket 4.5 03:27:56 12° N 03:27:56 12° N 03:28:54 10° N
Cosmos 1269 Rocket 4.5 03:29:01 44° N 03:30:26 59° ENE 03:35:38 10° SE
H-2A R/B 3.9 03:26:39 10° N 03:28:05 19° N 03:28:05 19° N
USA 238 DEB 4.3 03:33:04 39° NNW 03:33:04 39° NNW 03:39:18 10° NE
USA 238 4.3 03:33:10 39° NNW 03:33:10 39° NNW 03:39:24 10° NE
Cosmos 2278 Rocket 3.3 03:29:48 20° N 03:33:16 41° NE 03:38:35 10° ESE
Cosmos 2173 Rocket 4.3 03:31:23 10° N 03:37:27 63° ENE 03:43:28 10° SSE
Cosmos 2333 Rocket 3.3 03:39:30 32° NNW 03:39:30 32° NNW 03:43:12 10° NNE
ADEOS II 4.2 03:39:08 10° N 03:39:55 14° N 03:39:55 14° N
COSMOS 2455 3.3 03:45:06 45° NNW 03:45:06 45° NNW 03:50:22 10° NNE
Lacrosse 5 rocket 3.3 03:46:58 18° NNE 03:46:58 18° NNE 03:48:09 10° NE
Cosmos 1153 Rocket 4.3 03:39:50 10° NNW 03:46:00 74° W 03:52:12 10° S
Cosmos 2298 Rocket 4.1 03:46:57 60° NNW 03:46:57 60° NNW 03:51:36 10° NNE
Cosmos 1939 Rocket 3.8 03:43:32 10° NNE 03:47:15 44° E 03:48:49 28° SSE
ACS3 Solar Sail 2.2 03:43:14 10° N 03:47:53 44° NW 03:47:53 44° NW
BlueWalker 3 3.1 03:53:51 36° SE 03:53:51 36° SE 03:56:07 10° ESE
CENTAUR R/B 4.3 03:52:18 18° NNW 03:56:56 32° NNE 04:04:40 10° E
USA 234 3.3 03:51:01 10° SE 03:57:25 56° SW 03:58:53 47° W
Cosmos 2360 Rocket 3.0 03:59:09 35° NNW 03:59:09 35° NNW 04:03:32 10° NNE
Cosmos 2322 Rocket 3.1 03:59:32 31° NNW 03:59:32 31° NNW 04:03:42 10° NNE
Helios 1A Rocket 4.2 03:57:21 10° SE 04:00:24 32° ENE 04:02:41 15° N
Gbstr 26 Del rocket 3.9 03:59:16 42° SSW 04:00:39 56° SSE 04:06:22 10° ENE
SL-16 R/B 3.7 04:06:02 21° NNW 04:06:02 21° NNW 04:09:19 10° N
Cosmos 44 Rocket 3.3 04:05:02 55° NW 04:06:09 78° SW 04:11:18 10° SSE
Cosmos 2016 Rocket 4.4 04:02:22 10° N 04:08:44 66° ENE 04:15:03 10° SSE
Cosmos 1943 Rocket 2.3 04:06:17 19° NNW 04:10:23 73° ENE 04:15:52 10° SE
Meteor 2-14 Rocket 4.3 04:05:51 10° SSW 04:11:57 71° WNW 04:18:03 10° N
Okean 1-7 3.6 04:13:10 41° NNW 04:13:10 41° NNW 04:16:10 10° N
H-2A R/B 3.9 04:08:31 10° N 04:11:15 43° N 04:11:15 43° N
ARGOS 3.3 04:09:34 10° N 04:14:49 51° WNW 04:16:17 40° WSW
NOSS 2-1 (C) 2.9 04:14:58 73° ESE 04:14:58 73° ESE 04:17:55 10° NE
PAYLOAD A 4.0 04:10:19 10° N 04:15:42 66° WNW 04:20:29 13° SSW
Cosmos 1908 Rocket 3.5 04:11:56 10° N 04:16:24 85° E 04:20:49 10° S
Cosmos 1140 Rocket 3.3 04:15:56 30° NW 04:18:25 68° WSW 04:23:28 10° S
NOSS 2-1 (D) 2.7 04:19:05 80° ENE 04:19:05 80° ENE 04:21:57 10° NE
CZ-2C R/B 2.6 04:15:22 10° N 04:20:10 49° WNW 04:21:32 39° WSW
Timation 2 Rocket 4.0 04:14:49 16° NNW 04:20:21 78° WSW 04:26:45 10° SSE
Cosmos 1300 Rocket 4.2 04:16:52 10° N 04:21:09 55° ENE 04:25:22 10° SSE
Cosmos 1809 Rocket 4.4 04:17:58 10° SSW 04:23:56 56° WNW 04:29:57 10° N
ADEOS Rocket 3.9 04:19:26 10° N 04:24:56 31° WNW 04:25:40 30° WNW
Cosmos 2061 Rocket 4.5 04:22:36 10° N 04:28:46 61° ENE 04:34:53 10° SSE
NOSS 3-1 (C) 2.9 04:27:25 30° SW 04:29:50 76° NW 04:35:40 10° NE
Iridium 4 Rocket 3.0 04:27:17 10° N 04:31:41 81° E 04:35:51 10° S
Cosmos 2100 Rocket 4.0 04:26:07 10° NNW 04:32:04 53° W 04:38:01 10° SSW
SJ 16-02 3.3 04:28:44 10° N 04:32:25 27° ENE 04:36:05 10° ESE
Cosmos 2219 Rocket 2.9 04:36:50 29° WNW 04:38:02 32° NW 04:43:07 10° NNE
IRS-1D 3.4 04:35:17 10° NNE 04:40:19 89° ESE 04:45:14 10° SSW
SL-24 R/B - RUBIN 2 4.5 04:39:23 30° W 04:41:04 38° NW 04:45:37 10° NNE
NOSS 0 Rocket 3.9 04:38:00 10° SSW 04:44:09 86° ESE 04:50:20 10° NNE
COSMOS 2428 2.7 04:42:00 10° SW 04:47:37 61° WNW 04:53:17 10° NNE
USA 59 Rocket -0.3 04:50:47 37° WNW 04:51:15 39° NW 04:54:04 10° NNE
SL-08 RB Rocket 4.5 04:47:43 10° N 04:51:41 30° WNW 04:53:29 22° WSW
Cosmos 1459 Rocket 4.3 04:47:16 10° NNW 04:53:12 42° W 04:59:05 10° SSW
Cosmos 2322 3.9 04:50:01 12° SW 04:55:10 48° NW 05:00:41 10° NNE
FengYun 1-2 T 4.3 04:51:21 10° N 04:56:47 56° WNW 05:02:13 10° SW
COSMO-SKYMED 1 2.3 04:54:29 10° S 04:58:34 70° WSW 05:02:43 10° NNW
SKYMED 2 3.7 04:55:42 10° S 04:59:55 51° W 05:04:10 10° NNW
Cosmos 407 Rocket 3.5 04:55:19 10° NNW 05:00:20 57° WSW 05:05:18 10° S
USA 267 3.6 04:56:21 10° ENE 05:02:38 51° NNW 05:07:39 16° W
Cosmos 1484 Rocket 3.3 04:59:23 10° NNE 05:02:54 55° E 05:06:23 10° S
Cosmos 2228 Rocket 4.3 05:03:28 20° WNW 05:03:34 20° WNW 05:06:53 10° NNW
Cosmos 1725 Rocket 4.2 04:57:38 10° NNW 05:03:43 51° W 05:09:45 10° SSW
Cosmos 1980 3.7 05:01:41 10° SSW 05:07:20 86° WNW 05:13:03 10° NNE
Cosmos 1802 Rocket 4.4 05:05:38 10° NNW 05:11:31 40° W 05:17:19 10° SSW
Cosmos 1656 Rocket 4.2 05:07:52 10° NNW 05:13:31 61° ENE 05:19:08 10° SE
NOSS 3-1 (A) 2.9 05:09:13 10° SW 05:13:58 82° NW 05:19:50 10° NE
Cosmos 2233 Rocket 4.0 05:08:47 10° NNW 05:15:00 60° W 05:21:08 10° S
Cosmos 2278 Rocket 2.7 05:12:06 10° NW 05:17:19 39° WSW 05:22:31 10° S
Cosmos 1703 Rocket 4.2 05:13:59 10° SW 05:17:54 32° WNW 05:21:51 10° N
Cosmos 2251 Rocket 3.5 05:13:52 10° NNW 05:19:13 71° WSW 05:24:33 10° SSE
Cosmos 304 Rocket 4.1 05:14:50 10° NNW 05:19:36 67° ENE 05:24:20 10° SSE
Cosmos 1939 Rocket 4.2 05:18:12 10° NNW 05:20:55 19° WNW 05:23:37 10° WSW
NOSS 2-1 (E) 3.6 05:18:52 15° W 05:21:06 30° NW 05:23:53 10° NNE
CZ-3 R/B 4.1 05:18:38 10° SSW 05:21:59 12° SSW 05:24:30 10° SSE
Lacrosse 5 rocket 2.6 05:20:39 12° NW 05:22:48 20° N 05:25:24 10° NE
Cosmos 2237 Rocket 2.2 05:17:59 10° SW 05:23:39 72° WNW 05:29:19 10° NNE
Cosmos 2333 Rocket 4.1 05:21:34 10° NW 05:23:53 12° NNW 05:26:12 10° N
IGS 5A 3.8 05:21:53 10° NNE 05:25:54 67° ESE 05:29:52 10° S
Cosmos 2292 Rocket 4.3 05:24:20 10° SW 05:28:24 39° WNW 05:33:33 10° N
BlueWalker 3 3.7 05:27:40 11° W 05:29:34 16° SW 05:31:46 10° S
ACS3 Solar Sail 3.5 05:29:23 10° NW 05:30:38 11° NW 05:31:53 10° WNW
COSMOS 2455 4.4 05:28:15 11° WNW 05:32:01 18° NNW 05:36:00 10° NNE
Meteor 1-24 Rocket 4.4 05:28:05 10° SW 05:33:11 32° WNW 05:38:09 10° N
Helios 1A Rocket 3.9 05:30:47 10° SW 05:33:13 18° W 05:35:40 10° NW
Cosmos 2242 Rocket 3.5 05:29:53 10° S 05:34:15 87° W 05:38:41 10° N
Cosmos 2369 Rocket 3.1 05:29:48 10° NNW 05:35:19 50° NE 05:40:51 10° SE
CZ-4 R/B 4.5 05:31:04 10° N 05:35:29 34° WNW 05:39:49 10° SW
Cosmos 1782 Rocket 4.4 05:34:17 10° NNW 05:38:03 28° W 05:41:47 10° SSW
Cosmos 1624 Rocket 4.2 05:34:46 10° SSW 05:39:56 77° ESE 05:45:08 10° NNE
Cosmos 968 Rocket 4.3 05:36:43 10° NNW 05:41:51 52° ENE 05:46:57 10° SE
Cosmos 2360 Rocket 4.1 05:42:13 10° NW 05:44:04 11° NNW 05:45:54 10° N
Cosmos 2322 Rocket 4.2 05:43:08 10° NW 05:44:31 11° NNW 05:45:53 10° N
Cosmos 1420 Rocket 4.1 05:40:31 10° SW 05:45:43 61° WNW 05:51:00 10° NNE
Gbstr 26 Del rocket 3.8 05:41:59 10° W 05:47:12 72° N 05:53:41 10° ENE
Cosmos 1674 Rocket 4.3 05:42:53 10° S 05:47:13 60° E 05:51:36 10° NNE
CENTAUR R/B 3.7 05:41:05 10° NW 05:49:05 66° NE 05:58:22 10° SE
ARIANE 5 R/B 3.4 05:45:32 10° NNE 05:50:30 56° ESE 05:55:30 10° S
